| time (UTC) | temp F | wind direction | speed MPH | gust MPH | rain 1hr in | rain 24hr in | rain mn in | humidity % | barometer mb |
| 20260508153010 | 64 | 172 | 1.0 | 3.0 | 0.00 | 0.00 | 0.00 | 51 | 1010.0 |
| 20260508152510 | 63 | 157 | 1.0 | 3.0 | 0.00 | 0.00 | 0.00 | 51 | 1010.1 |
| 20260508152010 | 62 | 160 | 2.0 | 3.0 | 0.00 | 0.00 | 0.00 | 53 | 1010.1 |
| 20260508151511 | 62 | 130 | 1.0 | 3.0 | 0.00 | 0.00 | 0.00 | 53 | 1010.2 |
| 20260508151010 | 61 | 144 | 1.0 | 3.0 | 0.00 | 0.00 | 0.00 | 55 | 1010.3 |
| 20260508150010 | 60 | 159 | 2.0 | 3.0 | 0.00 | 0.00 | 0.00 | 54 | 1010.2 |
| 20260508145510 | 60 | 247 | 1.0 | 2.0 | 0.00 | 0.00 | 0.00 | 55 | 1010.2 |
| 20260508145010 | 59 | 120 | 0.0 | 2.0 | 0.00 | 0.00 | 0.00 | 56 | 1010.2 |
| 20260508144510 | 59 | 115 | 0.0 | 1.0 | 0.00 | 0.00 | 0.00 | 57 | 1010.2 |
| 20260508144010 | 58 | 120 | 0.0 | 1.0 | 0.00 | 0.00 | 0.00 | 58 | 1010.4 |
| 20260508143510 | 58 | 120 | 0.0 | 2.0 | 0.00 | 0.00 | 0.00 | 58 | 1010.6 |
| 20260508143010 | 58 | 119 | 1.0 | 2.0 | 0.00 | 0.00 | 0.00 | 59 | 1010.6 |
| 20260508142510 | 57 | 120 | 0.0 | 3.0 | 0.00 | 0.00 | 0.00 | 60 | 1010.5 |
| 20260508142010 | 57 | 120 | 0.0 | 3.0 | 0.00 | 0.00 | 0.00 | 60 | 1010.5 |
| 20260508141510 | 56 | 111 | 2.0 | 3.0 | 0.00 | 0.00 | 0.00 | 61 | 1010.7 |
| 20260508141010 | 56 | 128 | 1.0 | 3.0 | 0.00 | 0.00 | 0.00 | 63 | 1010.8 |
| 20260508140008 | 55 | 138 | 2.0 | 3.0 | 0.00 | 0.00 | 0.00 | 64 | 1010.6 |
| 20260508135509 | 54 | 115 | 0.0 | 2.0 | 0.00 | 0.00 | 0.00 | 66 | 1010.7 |
| 20260508135009 | 54 | 153 | 0.0 | 2.0 | 0.00 | 0.00 | 0.00 | 67 | 1010.7 |
| 20260508134508 | 53 | 275 | 0.0 | 2.0 | 0.00 | 0.00 | 0.00 | 68 | 1010.7 |
| 20260508134009 | 53 | 276 | 0.0 | 1.0 | 0.00 | 0.00 | 0.00 | 69 | 1010.7 |
| 20260508133009 | 53 | 277 | 0.0 | 2.0 | 0.00 | 0.00 | 0.00 | 68 | 1010.7 |
| 20260508132509 | 53 | 277 | 0.0 | 2.0 | 0.00 | 0.00 | 0.00 | 69 | 1010.7 |
| 20260508131509 | 53 | 11 | 0.0 | 2.0 | 0.00 | 0.00 | 0.00 | 68 | 1010.3 |
| 20260508131009 | 52 | 11 | 0.0 | 1.0 | 0.00 | 0.00 | 0.00 | 68 | 1010.4 |
| 20260508130009 | 52 | 11 | 0.0 | 1.0 | 0.00 | 0.00 | 0.00 | 70 | 1010.1 |
| 20260508125509 | 52 | 11 | 0.0 | 0.0 | 0.00 | 0.00 | 0.00 | 70 | 1010.1 |
| 20260508124508 | 52 | 11 | 0.0 | 0.0 | 0.00 | 0.00 | 0.00 | 70 | 1010.1 |
| 20260508123509 | 51 | 11 | 0.0 | 0.0 | 0.00 | 0.00 | 0.00 | 70 | 1010.0 |
| 20260508123009 | 51 | 11 | 0.0 | 1.0 | 0.00 | 0.00 | 0.00 | 69 | 1009.9 |
| 20260508122509 | 51 | 11 | 0.0 | 3.0 | 0.00 | 0.00 | 0.00 | 70 | 1009.8 |
| 20260508122009 | 51 | 11 | 0.0 | 3.0 | 0.00 | 0.00 | 0.00 | 70 | 1009.9 |
| 20260508121509 | 51 | 10 | 2.0 | 3.0 | 0.00 | 0.00 | 0.00 | 71 | 1010.1 |
| 20260508120509 | 50 | 11 | 0.0 | 1.0 | 0.00 | 0.00 | 0.00 | 72 | 1010.2 |
| 20260508120009 | 50 | 11 | 0.0 | 1.0 | 0.00 | 0.00 | 0.00 | 72 | 1010.1 |
| 20260508115509 | 50 | 10 | 0.0 | 3.0 | 0.00 | 0.00 | 0.00 | 71 | 1010.0 |
| 20260508115009 | 50 | 256 | 1.0 | 3.0 | 0.00 | 0.00 | 0.00 | 71 | 1010.1 |
| 20260508114509 | 50 | 139 | 2.0 | 3.0 | 0.00 | 0.00 | 0.00 | 71 | 1009.9 |
| 20260508114009 | 50 | 139 | 0.0 | 1.0 | 0.00 | 0.00 | 0.00 | 71 | 1010.0 |
| 20260508113509 | 50 | 139 | 0.0 | 1.0 | 0.00 | 0.00 | 0.00 | 69 | 1010.0 |
| 20260508113010 | 50 | 138 | 0.0 | 1.0 | 0.00 | 0.00 | 0.00 | 68 | 1010.1 |
| 20260508112509 | 50 | 139 | 0.0 | 1.0 | 0.00 | 0.00 | 0.00 | 68 | 1010.0 |
| 20260508112010 | 50 | 139 | 0.0 | 1.0 | 0.00 | 0.00 | 0.00 | 68 | 1010.0 |
| 20260508111513 | 50 | 139 | 0.0 | 2.0 | 0.00 | 0.00 | 0.00 | 67 | 1010.0 |
| 20260508110509 | 50 | 139 | 0.0 | 0.0 | 0.00 | 0.00 | 0.00 | 64 | 1010.1 |
| 20260508110009 | 50 | 139 | 0.0 | 0.0 | 0.00 | 0.00 | 0.00 | 63 | 1010.0 |
| 20260508105509 | 50 | 139 | 0.0 | 0.0 | 0.00 | 0.00 | 0.00 | 62 | 1010.0 |
| 20260508105010 | 50 | 138 | 0.0 | 2.0 | 0.00 | 0.00 | 0.00 | 62 | 1010.0 |
| 20260508103509 | 51 | 138 | 0.0 | 0.0 | 0.00 | 0.00 | 0.00 | 60 | 1010.0 |
| 20260508103013 | 51 | 138 | 0.0 | 0.0 | 0.00 | 0.00 | 0.00 | 59 | 1010.0 |
| 20260508102509 | 51 | 139 | 0.0 | 1.0 | 0.00 | 0.00 | 0.00 | 58 | 1010.0 |
| 20260508101510 | 52 | 138 | 0.0 | 2.0 | 0.00 | 0.00 | 0.00 | 58 | 1010.1 |
| 20260508101010 | 52 | 139 | 0.0 | 2.0 | 0.00 | 0.00 | 0.00 | 58 | 1010.4 |
| 20260508100510 | 52 | 44 | 0.0 | 1.0 | 0.00 | 0.00 | 0.00 | 57 | 1010.4 |
| 20260508095509 | 52 | 44 | 0.0 | 5.0 | 0.00 | 0.00 | 0.00 | 56 | 1010.5 |
| 20260508094510 | 53 | 334 | 3.0 | 5.0 | 0.00 | 0.00 | 0.00 | 57 | 1010.7 |
| 20260508093509 | 53 | 352 | 0.0 | 1.0 | 0.00 | 0.00 | 0.00 | 55 | 1010.4 |
| 20260508092510 | 53 | 354 | 0.0 | 1.0 | 0.00 | 0.00 | 0.00 | 54 | 1010.5 |
| 20260508092009 | 54 | 351 | 0.0 | 3.0 | 0.00 | 0.00 | 0.00 | 54 | 1010.6 |
| 20260508091509 | 54 | 351 | 1.0 | 6.0 | 0.00 | 0.00 | 0.00 | 55 | 1010.7 |
| 20260508090509 | 54 | 339 | 3.0 | 3.0 | 0.00 | 0.00 | 0.00 | 56 | 1010.5 |
| 20260508085509 | 54 | 342 | 0.0 | 3.0 | 0.00 | 0.00 | 0.00 | 57 | 1010.8 |
| 20260508085009 | 54 | 246 | 1.0 | 2.0 | 0.00 | 0.00 | 0.00 | 57 | 1010.7 |
| 20260508084509 | 54 | 246 | 0.0 | 2.0 | 0.00 | 0.00 | 0.00 | 58 | 1010.8 |
| 20260508084009 | 54 | 246 | 0.0 | 2.0 | 0.00 | 0.00 | 0.00 | 56 | 1010.4 |
| 20260508083509 | 54 | 246 | 0.0 | 2.0 | 0.00 | 0.00 | 0.00 | 56 | 1010.0 |
| 20260508083012 | 54 | 246 | 0.0 | 2.0 | 0.00 | 0.00 | 0.00 | 56 | 1010.1 |
| 20260508082509 | 54 | 246 | 1.0 | 2.0 | 0.00 | 0.00 | 0.00 | 56 | 1010.4 |
| 20260508082009 | 54 | 246 | 0.0 | 2.0 | 0.00 | 0.00 | 0.00 | 56 | 1010.4 |
| 20260508081508 | 54 | 246 | 0.0 | 2.0 | 0.00 | 0.00 | 0.00 | 56 | 1010.5 |
| 20260508081009 | 54 | 246 | 0.0 | 2.0 | 0.00 | 0.00 | 0.00 | 57 | 1010.8 |
| 20260508080010 | 54 | 246 | 0.0 | 3.0 | 0.00 | 0.00 | 0.00 | 57 | 1010.9 |
| 20260508075508 | 54 | 252 | 1.0 | 3.0 | 0.00 | 0.00 | 0.00 | 56 | 1010.8 |
| 20260508075009 | 54 | 9 | 1.0 | 2.0 | 0.00 | 0.00 | 0.00 | 57 | 1010.4 |
| 20260508074508 | 54 | 9 | 1.0 | 2.0 | 0.00 | 0.00 | 0.00 | 56 | 1010.4 |
| 20260508073509 | 53 | 9 | 0.0 | 3.0 | 0.00 | 0.00 | 0.00 | 55 | 1010.3 |
| 20260508073009 | 53 | 44 | 1.0 | 3.0 | 0.00 | 0.00 | 0.00 | 56 | 1010.3 |
| 20260508072508 | 53 | 34 | 2.0 | 3.0 | 0.00 | 0.00 | 0.00 | 58 | 1010.5 |
| 20260508072009 | 53 | 351 | 1.0 | 3.0 | 0.00 | 0.00 | 0.00 | 61 | 1010.7 |
| 20260508071010 | 52 | 18 | 0.0 | 1.0 | 0.00 | 0.00 | 0.00 | 62 | 1010.9 |
| 20260508070008 | 52 | 23 | 0.0 | 2.0 | 0.00 | 0.00 | 0.00 | 61 | 1010.9 |
| 20260508065509 | 52 | 22 | 1.0 | 2.0 | 0.00 | 0.00 | 0.00 | 62 | 1010.7 |
| 20260508065009 | 52 | 19 | 0.0 | 1.0 | 0.00 | 0.00 | 0.00 | 63 | 1010.8 |
| 20260508063510 | 52 | 22 | 0.0 | 0.0 | 0.00 | 0.00 | 0.00 | 65 | 1011.0 |
| 20260508063010 | 52 | 24 | 0.0 | 1.0 | 0.00 | 0.00 | 0.00 | 65 | 1011.0 |
| 20260508062509 | 52 | 22 | 0.0 | 1.0 | 0.00 | 0.00 | 0.00 | 65 | 1010.9 |
| 20260508062009 | 52 | 23 | 0.0 | 1.0 | 0.00 | 0.00 | 0.00 | 66 | 1010.7 |
| 20260508061509 | 52 | 22 | 0.0 | 0.0 | 0.00 | 0.00 | 0.00 | 65 | 1010.6 |
| 20260508061010 | 52 | 23 | 0.0 | 0.0 | 0.00 | 0.00 | 0.00 | 67 | 1010.5 |
| 20260508060009 | 52 | 22 | 0.0 | 0.0 | 0.00 | 0.00 | 0.00 | 68 | 1010.6 |
| 20260508055510 | 52 | 23 | 0.0 | 0.0 | 0.00 | 0.00 | 0.00 | 68 | 1010.7 |
| 20260508055010 | 52 | 21 | 0.0 | 0.0 | 0.00 | 0.00 | 0.00 | 68 | 1010.6 |
| 20260508054510 | 52 | 22 | 0.0 | 0.0 | 0.00 | 0.00 | 0.00 | 68 | 1010.6 |
| 20260508054010 | 52 | 20 | 0.0 | 1.0 | 0.00 | 0.00 | 0.00 | 68 | 1010.7 |
| 20260508053510 | 52 | 23 | 0.0 | 1.0 | 0.00 | 0.00 | 0.00 | 67 | 1010.6 |
| 20260508053010 | 52 | 20 | 0.0 | 1.0 | 0.00 | 0.00 | 0.00 | 67 | 1010.6 |
| 20260508052509 | 52 | 22 | 0.0 | 0.0 | 0.00 | 0.00 | 0.00 | 66 | 1010.6 |
| 20260508052010 | 52 | 9 | 0.0 | 1.0 | 0.00 | 0.00 | 0.00 | 65 | 1010.6 |
| 20260508051509 | 52 | 18 | 0.0 | 1.0 | 0.00 | 0.00 | 0.00 | 64 | 1010.6 |
| 20260508051010 | 52 | 18 | 0.0 | 0.0 | 0.00 | 0.00 | 0.00 | 63 | 1010.7 |
| 20260508050510 | 52 | 18 | 0.0 | 0.0 | 0.00 | 0.00 | 0.00 | 61 | 1010.9 |
| 20260508050010 | 52 | 18 | 0.0 | 0.0 | 0.00 | 0.00 | 0.00 | 61 | 1011.1 |
| 20260508045510 | 52 | 18 | 0.0 | 1.0 | 0.00 | 0.00 | 0.00 | 61 | 1011.1 |
| 20260508045009 | 52 | 18 | 0.0 | 1.0 | 0.00 | 0.00 | 0.00 | 61 | 1011.1 |
| 20260508044508 | 52 | 18 | 0.0 | 0.0 | 0.00 | 0.00 | 0.00 | 59 | 1011.0 |
| 20260508043509 | 53 | 18 | 0.0 | 0.0 | 0.00 | 0.00 | 0.00 | 55 | 1010.9 |
| 20260508043009 | 53 | 18 | 0.0 | 0.0 | 0.00 | 0.00 | 0.00 | 54 | 1011.0 |
| 20260508042509 | 53 | 18 | 0.0 | 0.0 | 0.00 | 0.00 | 0.00 | 54 | 1011.0 |
| 20260508042009 | 53 | 18 | 0.0 | 0.0 | 0.00 | 0.00 | 0.00 | 53 | 1010.9 |
| 20260508041508 | 54 | 18 | 0.0 | 1.0 | 0.00 | 0.00 | 0.00 | 53 | 1011.0 |
| 20260508041009 | 54 | 18 | 0.0 | 1.0 | 0.00 | 0.00 | 0.00 | 53 | 1011.1 |
| 20260508040011 | 54 | 18 | 0.0 | 0.0 | 0.00 | 0.00 | 0.00 | 49 | 1011.0 |
| 20260508035509 | 54 | 18 | 0.0 | 0.0 | 0.00 | 0.00 | 0.00 | 49 | 1011.1 |
| 20260508035009 | 55 | 18 | 0.0 | 0.0 | 0.00 | 0.00 | 0.00 | 49 | 1011.1 |
| 20260508033509 | 56 | 18 | 0.0 | 0.0 | 0.00 | 0.00 | 0.00 | 49 | 1011.0 |
| 20260508033009 | 56 | 18 | 0.0 | 0.0 | 0.00 | 0.00 | 0.00 | 49 | 1011.1 |
| 20260508032509 | 57 | 18 | 0.0 | 0.0 | 0.00 | 0.00 | 0.00 | 48 | 1011.1 |
| 20260508032009 | 57 | 18 | 0.0 | 0.0 | 0.00 | 0.00 | 0.00 | 47 | 1011.1 |
| 20260508031508 | 57 | 18 | 0.0 | 0.0 | 0.00 | 0.00 | 0.00 | 46 | 1011.1 |
| 20260508030509 | 58 | 17 | 0.0 | 0.0 | 0.00 | 0.00 | 0.00 | 42 | 1010.8 |
| 20260508030009 | 59 | 17 | 0.0 | 0.0 | 0.00 | 0.00 | 0.00 | 41 | 1010.9 |
| 20260508025509 | 59 | 17 | 0.0 | 0.0 | 0.00 | 0.00 | 0.00 | 41 | 1010.9 |
| 20260508025009 | 60 | 17 | 0.0 | 0.0 | 0.00 | 0.00 | 0.00 | 40 | 1010.8 |
| 20260508024509 | 60 | 17 | 0.0 | 0.0 | 0.00 | 0.00 | 0.00 | 40 | 1010.8 |
| 20260508024009 | 61 | 17 | 0.0 | 0.0 | 0.00 | 0.00 | 0.00 | 39 | 1010.7 |
| 20260508023509 | 62 | 17 | 0.0 | 0.0 | 0.00 | 0.00 | 0.00 | 38 | 1010.7 |
| 20260508023009 | 63 | 17 | 0.0 | 0.0 | 0.00 | 0.00 | 0.00 | 36 | 1010.7 |
| 20260508022010 | 64 | 17 | 0.0 | 0.0 | 0.00 | 0.00 | 0.00 | 35 | 1010.5 |
| 20260508021510 | 64 | 17 | 0.0 | 0.0 | 0.00 | 0.00 | 0.00 | 34 | 1010.3 |
| 20260508021010 | 65 | 17 | 0.0 | 0.0 | 0.00 | 0.00 | 0.00 | 34 | 1010.2 |
| 20260508020010 | 65 | 18 | 0.0 | 3.0 | 0.00 | 0.00 | 0.00 | 32 | 1010.1 |
| 20260508015510 | 66 | 27 | 1.0 | 3.0 | 0.00 | 0.00 | 0.00 | 31 | 1010.1 |
| 20260508015010 | 66 | 41 | 1.0 | 3.0 | 0.00 | 0.00 | 0.00 | 31 | 1010.1 |
| 20260508014509 | 66 | 355 | 3.0 | 3.0 | 0.00 | 0.00 | 0.00 | 30 | 1010.1 |
| 20260508014010 | 67 | 333 | 2.0 | 3.0 | 0.00 | 0.00 | 0.00 | 30 | 1010.1 |
| 20260508013509 | 67 | 7 | 1.0 | 3.0 | 0.00 | 0.00 | 0.00 | 30 | 1010.1 |
| 20260508012509 | 68 | 341 | 2.0 | 3.0 | 0.00 | 0.00 | 0.00 | 30 | 1009.9 |
| 20260508012010 | 68 | 343 | 1.0 | 3.0 | 0.00 | 0.00 | 0.00 | 30 | 1009.7 |
| 20260508011509 | 69 | 341 | 2.0 | 5.0 | 0.00 | 0.00 | 0.00 | 29 | 1009.6 |
| 20260508010510 | 69 | 351 | 2.0 | 3.0 | 0.00 | 0.00 | 0.00 | 29 | 1009.5 |
| 20260508010010 | 69 | 345 | 2.0 | 7.0 | 0.00 | 0.00 | 0.00 | 28 | 1009.6 |
| 20260508005509 | 70 | 337 | 3.0 | 7.0 | 0.00 | 0.00 | 0.00 | 27 | 1009.5 |
| 20260508005010 | 70 | 337 | 4.0 | 8.0 | 0.00 | 0.00 | 0.00 | 27 | 1009.5 |
| 20260508003505 | 71 | 328 | 1.0 | 3.0 | 0.00 | 0.00 | 0.00 | 26 | 1009.3 |
| 20260508003006 | 71 | 279 | 1.0 | 9.0 | 0.00 | 0.00 | 0.00 | 26 | 1009.2 |
| 20260508002506 | 71 | 305 | 2.0 | 9.0 | 0.00 | 0.00 | 0.00 | 26 | 1009.2 |
| 20260508001007 | 72 | 252 | 2.0 | 6.0 | 0.00 | 0.00 | 0.00 | 27 | 1009.0 |
| 20260508000508 | 72 | 291 | 1.0 | 9.0 | 0.00 | 0.00 | 0.00 | 28 | 1009.0 |
| 20260508000008 | 72 | 337 | 5.0 | 9.0 | 0.00 | 0.00 | 0.00 | 26 | 1009.2 |
| 20260507235508 | 72 | 272 | 1.0 | 5.0 | 0.00 | 0.00 | 0.00 | 27 | 1009.2 |
| 20260507234508 | 73 | 281 | 2.0 | 7.0 | 0.00 | 0.00 | 0.00 | 27 | 1009.1 |
| 20260507234009 | 73 | 290 | 1.0 | 12.0 | 0.00 | 0.00 | 0.00 | 26 | 1009.1 |
| 20260507233517 | 73 | 332 | 2.0 | 12.0 | 0.00 | 0.00 | 0.00 | 27 | 1009.1 |
| 20260507232516 | 73 | 258 | 3.0 | 9.0 | 0.00 | 0.00 | 0.00 | 27 | 1009.1 |
| 20260507232015 | 73 | 304 | 1.0 | 5.0 | 0.00 | 0.00 | 0.00 | 28 | 1009.1 |
| 20260507231514 | 74 | 332 | 1.0 | 7.0 | 0.00 | 0.00 | 0.00 | 26 | 1009.1 |
| 20260507230013 | 74 | 264 | 5.0 | 12.0 | 0.00 | 0.00 | 0.00 | 25 | 1009.0 |
| 20260507225512 | 75 | 260 | 3.0 | 10.0 | 0.00 | 0.00 | 0.00 | 25 | 1009.0 |
| 20260507225011 | 74 | 284 | 2.0 | 6.0 | 0.00 | 0.00 | 0.00 | 26 | 1009.0 |
| 20260507224510 | 74 | 248 | 2.0 | 6.0 | 0.00 | 0.00 | 0.00 | 28 | 1009.0 |
| 20260507224009 | 74 | 263 | 2.0 | 9.0 | 0.00 | 0.00 | 0.00 | 27 | 1009.0 |
| 20260507223509 | 74 | 257 | 3.0 | 9.0 | 0.00 | 0.00 | 0.00 | 26 | 1009.1 |
| 20260507223009 | 74 | 260 | 4.0 | 9.0 | 0.00 | 0.00 | 0.00 | 27 | 1009.1 |
| 20260507222508 | 74 | 223 | 1.0 | 7.0 | 0.00 | 0.00 | 0.00 | 27 | 1009.1 |
| 20260507222009 | 73 | 251 | 4.0 | 7.0 | 0.00 | 0.00 | 0.00 | 27 | 1009.1 |
| 20260507221510 | 73 | 250 | 1.0 | 7.0 | 0.00 | 0.00 | 0.00 | 26 | 1009.1 |
| 20260507221009 | 74 | 289 | 2.0 | 7.0 | 0.00 | 0.00 | 0.00 | 26 | 1009.0 |
| 20260507220509 | 74 | 247 | 4.0 | 7.0 | 0.00 | 0.00 | 0.00 | 26 | 1009.1 |
| 20260507220008 | 74 | 258 | 2.0 | 9.0 | 0.00 | 0.00 | 0.00 | 26 | 1009.0 |
| 20260507215509 | 74 | 266 | 3.0 | 9.0 | 0.00 | 0.00 | 0.00 | 28 | 1009.0 |
| 20260507215009 | 74 | 255 | 1.0 | 9.0 | 0.00 | 0.00 | 0.00 | 28 | 1009.0 |
| 20260507214009 | 74 | 267 | 5.0 | 10.0 | 0.00 | 0.00 | 0.00 | 25 | 1009.1 |
| 20260507213305 | 74 | 0 | 4.0 | 7.0 | 0.00 | 0.00 | 0.00 | 25 | 1009.2 |
| 20260507212805 | 74 | 323 | 3.0 | 13.0 | 0.00 | 0.00 | 0.00 | 26 | 1009.0 |
| 20260507212307 | 74 | 244 | 4.0 | 13.0 | 0.00 | 0.00 | 0.00 | 27 | 1009.0 |
| 20260507211805 | 75 | 263 | 3.0 | 12.0 | 0.00 | 0.00 | 0.00 | 27 | 1009.1 |
| 20260507211305 | 75 | 227 | 3.0 | 12.0 | 0.00 | 0.00 | 0.00 | 26 | 1009.2 |
| 20260507210508 | 75 | 232 | 5.0 | 12.0 | 0.00 | 0.00 | 0.00 | 26 | 1009.2 |
| 20260507210009 | 75 | 273 | 1.0 | 8.0 | 0.00 | 0.00 | 0.00 | 26 | 1009.2 |
| 20260507205509 | 75 | 256 | 3.0 | 7.0 | 0.00 | 0.00 | 0.00 | 29 | 1009.3 |
| 20260507205010 | 75 | 263 | 3.0 | 10.0 | 0.00 | 0.00 | 0.00 | 30 | 1009.4 |
| 20260507204509 | 75 | 229 | 4.0 | 10.0 | 0.00 | 0.00 | 0.00 | 30 | 1009.4 |
| 20260507203509 | 75 | 253 | 2.0 | 7.0 | 0.00 | 0.00 | 0.00 | 29 | 1009.5 |
| 20260507203009 | 75 | 285 | 2.0 | 7.0 | 0.00 | 0.00 | 0.00 | 30 | 1009.5 |
| 20260507202509 | 75 | 255 | 3.0 | 7.0 | 0.00 | 0.00 | 0.00 | 31 | 1009.5 |
| 20260507202010 | 74 | 267 | 2.0 | 7.0 | 0.00 | 0.00 | 0.00 | 30 | 1009.6 |
| 20260507201508 | 74 | 239 | 2.0 | 9.0 | 0.00 | 0.00 | 0.00 | 29 | 1009.6 |
| 20260507201010 | 74 | 322 | 1.0 | 9.0 | 0.00 | 0.00 | 0.00 | 27 | 1009.6 |
| 20260507200509 | 74 | 309 | 3.0 | 12.0 | 0.00 | 0.00 | 0.00 | 29 | 1009.7 |
| 20260507200011 | 74 | 227 | 3.0 | 12.0 | 0.00 | 0.00 | 0.00 | 30 | 1009.8 |
| 20260507195509 | 74 | 259 | 5.0 | 12.0 | 0.00 | 0.00 | 0.00 | 31 | 1009.7 |
| 20260507194510 | 73 | 255 | 3.0 | 7.0 | 0.00 | 0.00 | 0.00 | 34 | 1009.8 |
| 20260507193509 | 73 | 264 | 2.0 | 6.0 | 0.00 | 0.00 | 0.00 | 35 | 1009.7 |
| 20260507193011 | 73 | 238 | 2.0 | 9.0 | 0.00 | 0.00 | 0.00 | 33 | 1009.7 |
| 20260507192509 | 73 | 306 | 3.0 | 9.0 | 0.00 | 0.00 | 0.00 | 36 | 1010.0 |
| 20260507191509 | 72 | 210 | 2.0 | 9.0 | 0.00 | 0.00 | 0.00 | 37 | 1009.8 |
| 20260507190509 | 72 | 257 | 2.0 | 10.0 | 0.00 | 0.00 | 0.00 | 37 | 1010.2 |
| 20260507190010 | 72 | 264 | 3.0 | 6.0 | 0.00 | 0.00 | 0.00 | 36 | 1010.1 |
| 20260507185509 | 72 | 190 | 2.0 | 6.0 | 0.00 | 0.00 | 0.00 | 36 | 1010.1 |
| 20260507185010 | 72 | 173 | 3.0 | 6.0 | 0.00 | 0.00 | 0.00 | 35 | 1010.3 |
| 20260507184510 | 72 | 227 | 3.0 | 9.0 | 0.00 | 0.00 | 0.00 | 34 | 1010.3 |
| 20260507184010 | 72 | 241 | 2.0 | 9.0 | 0.00 | 0.00 | 0.00 | 34 | 1010.3 |
| 20260507183509 | 72 | 252 | 3.0 | 8.0 | 0.00 | 0.00 | 0.00 | 37 | 1010.3 |
| 20260507182509 | 72 | 281 | 2.0 | 7.0 | 0.00 | 0.00 | 0.00 | 35 | 1010.6 |
| 20260507182010 | 72 | 237 | 3.0 | 7.0 | 0.00 | 0.00 | 0.00 | 37 | 1010.7 |
| 20260507181510 | 72 | 232 | 3.0 | 7.0 | 0.00 | 0.00 | 0.00 | 37 | 1010.7 |
| 20260507181010 | 71 | 224 | 3.0 | 9.0 | 0.00 | 0.00 | 0.00 | 37 | 1010.8 |
| 20260507180010 | 71 | 258 | 2.0 | 6.0 | 0.00 | 0.00 | 0.00 | 38 | 1010.8 |
| 20260507175010 | 71 | 304 | 2.0 | 6.0 | 0.00 | 0.00 | 0.00 | 34 | 1011.0 |
| 20260507174510 | 71 | 259 | 2.0 | 6.0 | 0.00 | 0.00 | 0.00 | 36 | 1011.1 |
| 20260507172510 | 70 | 233 | 3.0 | 12.0 | 0.00 | 0.00 | 0.00 | 38 | 1011.4 |
| 20260507172010 | 70 | 264 | 4.0 | 12.0 | 0.00 | 0.00 | 0.00 | 36 | 1011.4 |
| 20260507171510 | 70 | 253 | 2.0 | 7.0 | 0.00 | 0.00 | 0.00 | 37 | 1011.4 |
| 20260507171010 | 70 | 113 | 4.0 | 7.0 | 0.00 | 0.00 | 0.00 | 38 | 1011.6 |
| 20260507170510 | 70 | 209 | 1.0 | 3.0 | 0.00 | 0.00 | 0.00 | 39 | 1011.6 |
| 20260507170010 | 69 | 207 | 2.0 | 5.0 | 0.00 | 0.00 | 0.00 | 39 | 1011.8 |
| 20260507165509 | 69 | 206 | 1.0 | 7.0 | 0.00 | 0.00 | 0.00 | 40 | 1011.9 |
| 20260507165009 | 68 | 241 | 3.0 | 7.0 | 0.00 | 0.00 | 0.00 | 40 | 1011.8 |
| 20260507164509 | 68 | 200 | 1.0 | 5.0 | 0.00 | 0.00 | 0.00 | 41 | 1012.0 |
| 20260507163509 | 67 | 264 | 2.0 | 5.0 | 0.00 | 0.00 | 0.00 | 44 | 1012.1 |
| 20260507163010 | 67 | 217 | 2.0 | 7.0 | 0.00 | 0.00 | 0.00 | 45 | 1012.1 |
| 20260507162509 | 66 | 218 | 2.0 | 10.0 | 0.00 | 0.00 | 0.00 | 44 | 1012.3 |
| 20260507162009 | 65 | 195 | 2.0 | 10.0 | 0.00 | 0.00 | 0.00 | 45 | 1012.4 |
| 20260507161508 | 65 | 196 | 3.0 | 6.0 | 0.00 | 0.00 | 0.00 | 47 | 1012.4 |
| 20260507161010 | 64 | 0 | 1.0 | 12.0 | 0.00 | 0.00 | 0.00 | 48 | 1012.6 |
| 20260507160509 | 63 | 191 | 3.0 | 12.0 | 0.00 | 0.00 | 0.00 | 48 | 1012.7 |
| 20260507160009 | 62 | 182 | 2.0 | 12.0 | 0.00 | 0.00 | 0.00 | 52 | 1012.7 |
| 20260507155009 | 61 | 178 | 2.0 | 3.0 | 0.00 | 0.00 | 0.00 | 54 | 1012.9 |
| 20260507154510 | 60 | 201 | 2.0 | 3.0 | 0.00 | 0.00 | 0.00 | 55 | 1012.9 |
| 20260507154010 | 60 | 212 | 1.0 | 3.0 | 0.00 | 0.00 | 0.00 | 55 | 1013.0 |